STARLINK-4400, 53468

Orbit data source: Space-Track

STARLINK-4400, 53468 is a payload satellite owned by SpaceX/Seattle (US) in SSO that was launched on Fri, 12 Aug 2022 UTC via an FALCON 9 launch vehicle from the Air Force Western Test Range (AFWTR). Payload-class satellites include a variety of spacecraft equipped with specific instruments for various scientific and technological missions. These include communications satellites like Starlink; space stations such as the ISS; scientific satellites like the Hubble; Earth observation satellites from companies like Planet Labs, Umbra, and HawkEye 360; GPS; miniature CubeSats for education and research; and military/defense satellites.

Loading next visibility...
Identifier
53468, 2022-099D
Orbit
SSO
Country
Flag of USUS
Related business
Manufacturer
SpaceX/Seattle
Mission
Operational Commercial Communications
Bus & Motor
STARLINK, Unknown motor
Mass
300 kg wet, ~275 kg dry
Launch date (UTC)
2022-08-12 (3 years ago)
Launch vehicle
FALCON 9
Launch site
Air Force Western Test Range (AFWTR)
Object type
Payload
Rocket body
Debris
Shape & HBR
Box + 1 Pan, 10.1 m
Radar Cross Section
13.562 m², Large (>1 m²)

Expand to show TLE details & history
Last TLE update: 12 hours ago

TLE from 12 hours ago
0 STARLINK-4400
1 53468U 22099D   25346.87618039 -.00000736  00000-0 -52756-4 0  9997
2 53468  97.6012 105.2222 0002836  85.9595 274.1954 15.01264441182952
Epoch: 2025-12-12T21:01Z
TLE epoch observation values (Epoch: 2025-12-12T21:01:41.985Z)
Latitude
0.00001°
Longitude
67.98574°
Altitude
565.912 km
Speed
7.578 km/s
True Right ascension
07h 00m 53s
True Declination
0° 00' 00"
Sunlit
Object was in full shadow at epoch
Visualization orbit readout
Latitude
Unknown
Longitude
Unknown
Altitude
Unknown
Speed
Unknown
Apparent Right ascension
Unknown
Apparent Declination
Unknown
Sunlit
N/A
Visualization observer readout
Local Sidereal Time
07:31:01
Azimuth
Unknown
Elevation
Unknown
Doppler factor
Unknown
Orbital elements
Apogee altitude
561.963 km
Perigee altitude
558.028 km
Semi-major axis
6,938.132 km
Eccentricity
0.00028
Inclination
97.6012°
RAAN
105.2222°
Arg. of periapsis
85.9595°
True anomaly
274.16299°
Mean anomaly
274.1954°
Eccentric anomaly
274.17919°
Mean motion
3.7556 °/min
Orbital period
95.86 mins
BSTAR
-0.000052756
Loading maneuver chart data...
Computing Atmospheric mass density...
Loading historical data...
Loading historical data...
Loading historical data...
Loading historical data...
Loading historical data...
Loading historical data...
Loading historical data...

Documentation

Showing up to 5 results
|